This demonstration page uses our WeatherBlox Daily Observations layout. Learn more.

Hourly Observations for May 23, 2016

Temp ( °F °C ) Dew Point ( °F °C ) Humidity (%) Winds ( mph kmh ) Pressure ( in mb ) Visibility ( mi km ) Precip ( " mm )
12:15 am 00:15 Clear 69 20.5 64 18 86 86 SSE 23 37 29.62 1003 10 16.0934 0 0
12:35 am 00:35 Partly Cloudy 69 20.5 64 18 86 86 SSE 21 33 29.62 1003 10 16.0934 0 0
12:55 am 00:55 Partly Cloudy 69 20.3 64 18 87 87 SSE 21 33 29.65 1004 10 16.0934 0 0
1:15 am 01:15 Clear 68 20.2 64 18 87 87 SSE 22 35 29.65 1004 10 16.0934 0 0
1:35 am 01:35 Clear 69 20.3 64 18 87 87 S 15 24 29.65 1004 10 16.0934 0 0
1:55 am 01:55 Partly Cloudy 69 20.5 64 18 86 86 S 16 26 29.71 1006 10 16.0934 0 0
2:15 am 02:15 Mostly Cloudy with Nearby Thunderstorms 69 20.3 64 18 87 87 S 12 19 29.71 1006 10 16.0934 0 0
2:35 am 02:35 Cloudy 68 20.1 65 18.1 88 88 S 5 7 29.71 1006 10 16.0934 0 0
2:55 am 02:55 Cloudy with Nearby Thunderstorms 68 20 64 18 88 88 SW 3 6 29.71 1006 10 16.0934 0 0
3:15 am 03:15 Cloudy 63 17 57 14 83 83 WNW 33 54 29.77 1008 10 16.0934 0 0
3:35 am 03:35 Cloudy with Light Thunderstorms 57 14.1 54 12 87 87 NNW 16 26 29.8 1009 7 11.26538 0.08 2.032
3:55 am 03:55 Cloudy with Light Thunderstorms 57 13.7 52 11.1 84 84 N 18 30 29.8 1009 10 16.0934 0.09 2.286
4:15 am 04:15 Cloudy with Rain 57 13.7 52 11 84 84 N 12 19 29.77 1008 10 16.0934 0 0
4:35 am 04:35 Cloudy with Nearby Thunderstorms 57 13.7 51 10.7 82 82 N 10 17 29.77 1008 10 16.0934 0 0
4:55 am 04:55 Cloudy with Rain 57 13.8 52 10.9 83 83 NNW 10 17 29.8 1009 10 16.0934 0.01 0.254
5:15 am 05:15 Cloudy 56 13.5 52 11 85 85 NNW 8 13 29.77 1008 10 16.0934 0 0
5:35 am 05:35 Cloudy 56 13.5 52 11 85 85 N 8 13 29.77 1008 10 16.0934 0 0
5:55 am 05:55 Mostly Cloudy with Nearby Thunderstorms 56 13.1 52 11.1 88 88 N 3 6 29.77 1008 10 16.0934 0 0
6:15 am 06:15 Mostly Cloudy 56 13.2 52 11.2 88 88 Calm 29.8 1009 10 16.0934 0 0
6:35 am 06:35 Cloudy 56 13.1 53 11.4 90 90 Calm 29.8 1009 10 16.0934 0 0
6:55 am 06:55 Cloudy with Light Rain 56 13.1 52 11 87 87 NNE 6 9 29.8 1009 10 16.0934 0 0
7:15 am 07:15 Partly Cloudy 55 13 52 11.2 89 89 ENE 6 9 29.77 1008 10 16.0934 0 0
7:35 am 07:35 Sunny 56 13.2 53 11.5 90 90 SE 6 9 29.8 1009 10 16.0934 0 0
7:55 am 07:55 Sunny 57 13.8 53 11.9 88 88 ESE 5 7 29.77 1008 10 16.0934 0 0
8:15 am 08:15 Sunny 59 14.9 54 12 83 83 ESE 6 9 29.74 1007 10 16.0934 0.01 0.254
8:35 am 08:35 Sunny 59 15.2 54 12 81 81 E 6 9 29.77 1008 10 16.0934 0.01 0.254
8:55 am 08:55 Sunny 60 15.8 54 12.1 79 79 E 5 7 29.77 1008 10 16.0934 0.01 0.254
9:15 am 09:15 Sunny 62 16.6 55 12.8 78 78 N 3 6 29.8 1009 10 16.0934 0 0
9:35 am 09:35 Sunny 62 16.9 54 12.4 75 75 Calm 29.8 1009 10 16.0934 0 0
9:55 am 09:55 Sunny 63 17.4 56 13.1 76 76 Calm 29.8 1009 10 16.0934 0 0
10:15 am 10:15 Sunny 64 17.7 55 12.8 73 73 Calm 29.8 1009 10 16.0934 0 0
10:35 am 10:35 Sunny 66 18.9 56 13.1 69 69 Calm 29.74 1007 10 16.0934 0 0
10:55 am 10:55 Sunny 67 19.3 56 13.2 68 68 Calm 29.74 1007 10 16.0934 0 0
11:15 am 11:15 Sunny 68 20 55 12.9 64 64 Calm 29.74 1007 10 16.0934 0 0
11:35 am 11:35 Sunny 69 20.4 56 13.1 63 63 NNW 3 6 29.74 1007 10 16.0934 0 0
11:55 am 11:55 Sunny 69 20.5 55 13 62 62 Calm 29.74 1007 10 16.0934 0 0
12:15 pm 12:15 Sunny 70 20.9 56 13.4 62 62 SSE 3 6 29.74 1007 10 16.0934 0 0
12:35 pm 12:35 Sunny 70 21 56 13.2 61 61 Calm 29.74 1007 10 16.0934 0 0
12:55 pm 12:55 Sunny 71 21.9 57 13.9 61 61 S 3 6 29.71 1006 10 16.0934 0 0
1:15 pm 13:15 Sunny 71 21.7 56 13.6 60 60 Calm 29.71 1006 10 16.0934 0 0
1:35 pm 13:35 Sunny 72 22.2 57 13.8 59 59 Calm 29.68 1005 10 16.0934 0 0
1:55 pm 13:55 Sunny 73 22.7 57 14.1 58 58 Calm 29.68 1005 10 16.0934 0 0
2:15 pm 14:15 Sunny 74 23.3 58 14.7 59 59 Calm 29.68 1005 10 16.0934 0 0
2:35 pm 14:35 Partly Cloudy 74 23.6 56 13.5 53 53 Calm 29.68 1005 10 16.0934 0 0
2:55 pm 14:55 Partly Cloudy 74 23.5 56 13.4 53 53 ESE 3 6 29.68 1005 10 16.0934 0 0
3:15 pm 15:15 Cloudy 74 23.6 58 14.2 56 56 E 3 6 29.68 1005 10 16.0934 0 0
3:35 pm 15:35 Mostly Cloudy 75 24 56 13.2 51 51 Calm 29.68 1005 10 16.0934 0 0
3:55 pm 15:55 Cloudy 75 24.1 56 13.2 51 51 SSE 3 6 29.68 1005 10 16.0934 0 0
4:15 pm 16:15 Cloudy 75 24 57 13.7 53 53 Calm 29.68 1005 10 16.0934 0 0
4:35 pm 16:35 Mostly Cloudy 75 24.1 56 13.6 52 52 SSW 5 7 29.68 1005 10 16.0934 0 0
4:55 pm 16:55 Mostly Cloudy 77 24.8 57 13.7 50 50 WSW 3 6 29.65 1004 10 16.0934 0 0
5:15 pm 17:15 Partly Cloudy 77 25 56 13.2 48 48 Calm 29.62 1003 10 16.0934 0 0
5:35 pm 17:35 Mostly Cloudy 76 24.5 56 13.1 49 49 NW 5 7 29.62 1003 10 16.0934 0 0
5:55 pm 17:55 Cloudy 76 24.3 56 13.1 50 50 Calm 29.62 1003 10 16.0934 0 0
6:15 pm 18:15 Partly Cloudy 76 24.5 55 13 49 49 SSW 5 7 29.62 1003 10 16.0934 0 0
6:35 pm 18:35 Partly Cloudy 76 24.4 56 13.1 49 49 Calm 29.62 1003 10 16.0934 0 0
6:55 pm 18:55 Partly Cloudy with Nearby Thunderstorms 75 24.1 56 13.6 52 52 Calm 29.68 1005 10 16.0934 0 0
7:15 pm 19:15 Partly Cloudy 73 22.9 57 14 57 57 Calm 29.65 1004 10 16.0934 0 0
7:35 pm 19:35 Mostly Cloudy 74 23.1 56 13.1 53 53 Calm 29.68 1005 10 16.0934 0 0
7:55 pm 19:55 Mostly Cloudy 72 22.4 58 14.6 61 61 E 3 6 29.65 1004 10 16.0934 0 0
8:15 pm 20:15 Mostly Cloudy with Nearby Thunderstorms 73 22.5 58 14.6 61 61 Calm 29.68 1005 10 16.0934 0 0
8:35 pm 20:35 Partly Cloudy with Nearby Thunderstorms 72 22 59 14.9 64 64 Calm 29.68 1005 4 6.43736 0 0
8:55 pm 20:55 Mostly Cloudy with Haze 69 20.8 59 15 70 70 E 3 6 29.71 1006 0.75 1.207005 0 0
9:15 pm 21:15 Mostly Cloudy with Haze 68 20 58 14.7 72 72 Calm 29.71 1006 0.5 0.80467 0 0
9:35 pm 21:35 Mostly Cloudy with Haze 65 18.4 59 15 81 81 ENE 5 7 29.71 1006 0.75 1.207005 0 0
9:55 pm 21:55 Mostly Cloudy with Haze 66 18.7 58 14.4 76 76 Calm 29.71 1006 0.5 0.80467 0 0
10:15 pm 22:15 Clear 66 18.9 57 13.9 73 73 Calm 29.71 1006 7 11.26538 0 0
10:35 pm 22:35 Clear 64 17.6 57 14.1 80 80 Calm 29.77 1008 10 16.0934 0 0
10:55 pm 22:55 Clear 65 18.1 57 14 77 77 Calm 29.74 1007 10 16.0934 0 0
11:15 pm 23:15 Clear 62 16.8 57 13.7 82 82 Calm 29.77 1008 10 16.0934 0 0
11:35 pm 23:35 Clear 61 16 56 13.3 84 84 ESE 3 6 29.77 1008 10 16.0934 0 0
11:55 pm 23:55 Clear 62 16.5 57 13.8 84 84 ESE 5 7 29.77 1008 10 16.0934 0 0

Powered by AerisWeather